Voltar ao catálogo

NINGXIA-1 7

AtivoCiênciaLEO
NORAD 49019·PAYLOAD·🇨🇳 China

Lançado Jul 9, 2021 de Taiyuan Satellite Launch Center

Loading…

Próximas Passagens (próximas 24 horas)

TLE

AtualizadoSource: Space-Track

Época: Sep 14, 2026, 15:06 UTC

1 49019U 21064B   26257.62930777 -.00000032  00000-0  57665-4 0  9998
2 49019  45.0020 183.2634 0007929 305.8423  54.1676 14.08558751266855

Acompanhe NINGXIA-1 7 em tempo real com AllMySat

Download on the App Store